TimeCEST,TemperatureF,Dew PointF,Humidity,Sea Level PressureIn,VisibilityMPH,Wind Direction,Wind SpeedMPH,Gust SpeedMPH,PrecipitationIn,Events,Conditions,WindDirDegrees,DateUTC
12:45 AM,62.6,57.2,82,30.15,-9999.0,ESE,4.6,-,N/A,,Clear,110,2012-09-30 22:45:00
1:45 AM,62.6,55.4,77,30.12,-9999.0,ENE,6.9,-,N/A,,Clear,70,2012-09-30 23:45:00
2:00 AM,63,55,69,30.10,31,ENE,6.7,,,,Partly Cloudy,70,2012-10-01 00:00:00
2:45 AM,62.6,55.4,77,30.12,-9999.0,East,2.3,-,N/A,,Clear,80,2012-10-01 00:45:00
3:40 AM,62.6,55.4,77,30.12,-9999.0,Calm,Calm,-,N/A,,Unknown,0,2012-10-01 01:40:00
3:45 AM,62.6,55.4,77,30.12,-9999.0,Calm,Calm,-,N/A,,Clear,0,2012-10-01 01:45:00
4:45 AM,60.8,57.2,88,30.09,-9999.0,NE,4.6,-,N/A,,Clear,50,2012-10-01 02:45:00
5:45 AM,60.8,55.4,82,30.09,-9999.0,ENE,4.6,-,N/A,,Clear,70,2012-10-01 03:45:00
6:15 AM,60.8,55.4,82,30.09,-9999.0,East,5.8,-,N/A,,Clear,80,2012-10-01 04:15:00
6:45 AM,60.8,55.4,82,30.09,-9999.0,NE,3.5,-,N/A,,Clear,40,2012-10-01 04:45:00
7:00 AM,-9999,-9999,N/A,-9999,-9999.0,East,5.8,-,N/A,Rain,Light Rain,80,2012-10-01 05:00:00
7:15 AM,60.8,55.4,82,30.09,-9999.0,East,3.5,-,N/A,,Clear,80,2012-10-01 05:15:00
7:45 AM,60.8,55.4,82,30.09,-9999.0,ENE,2.3,-,N/A,,Clear,70,2012-10-01 05:45:00
8:00 AM,60,56,81,30.10,25,ENE,2.2,,,,Mostly Cloudy,70,2012-10-01 06:00:00
8:15 AM,60.8,57.2,88,30.09,-9999.0,ENE,3.5,-,N/A,,Clear,60,2012-10-01 06:15:00
8:45 AM,60.8,55.4,82,30.09,-9999.0,NE,9.2,-,N/A,,Clear,50,2012-10-01 06:45:00
9:15 AM,62.6,55.4,77,30.09,6.2,East,8.1,-,N/A,Rain,Light Rain,100,2012-10-01 07:15:00
9:45 AM,62.6,55.4,77,30.09,-9999.0,East,5.8,-,N/A,,Clear,90,2012-10-01 07:45:00
10:00 AM,-9999,-9999,N/A,-9999,-9999.0,East,6.9,-,N/A,Rain,Light Rain,100,2012-10-01 08:00:00
10:15 AM,66.2,55.4,68,30.09,-9999.0,ESE,3.5,-,N/A,,Clear,120,2012-10-01 08:15:00
10:45 AM,66.2,57.2,73,30.09,-9999.0,East,3.5,-,N/A,,Clear,80,2012-10-01 08:45:00
11:15 AM,68.0,57.2,68,30.09,-9999.0,ESE,5.8,-,N/A,,Clear,120,2012-10-01 09:15:00
11:45 AM,69.8,59.0,68,30.09,-9999.0,ESE,4.6,-,N/A,,Clear,110,2012-10-01 09:45:00
12:15 PM,71.6,59.0,64,30.06,-9999.0,East,5.8,-,N/A,,Clear,90,2012-10-01 10:15:00
12:45 PM,71.6,59.0,64,30.06,-9999.0,SSE,3.5,-,N/A,,Clear,150,2012-10-01 10:45:00
1:00 PM,-9999,-9999,N/A,-9999,-9999.0,Variable,3.5,-,N/A,Rain,Light Rain Showers,0,2012-10-01 11:00:00
1:15 PM,71.6,59.0,64,30.06,-9999.0,SE,5.8,-,N/A,,Clear,130,2012-10-01 11:15:00
1:45 PM,71.6,60.8,69,30.04,-9999.0,East,3.5,-,N/A,,Clear,90,2012-10-01 11:45:00
2:00 PM,72,61,60,30.03,12,East,4.5,,,,Partly Cloudy,90,2012-10-01 12:00:00
2:15 PM,73.4,60.8,65,30.06,-9999.0,SE,4.6,-,N/A,,Clear,130,2012-10-01 12:15:00
2:45 PM,73.4,60.8,65,30.06,-9999.0,SE,4.6,-,N/A,,Clear,130,2012-10-01 12:45:00
3:15 PM,73.4,60.8,65,30.04,-9999.0,SE,4.6,-,N/A,,Clear,130,2012-10-01 13:15:00
3:45 PM,73.4,60.8,65,30.04,-9999.0,SSE,4.6,-,N/A,,Clear,150,2012-10-01 13:45:00
4:00 PM,-9999,-9999,N/A,-9999,-9999.0,Variable,3.5,-,N/A,Rain,Light Rain Showers,0,2012-10-01 14:00:00
4:15 PM,75.2,60.8,61,30.04,-9999.0,South,4.6,-,N/A,,Clear,170,2012-10-01 14:15:00
4:45 PM,73.4,60.8,65,30.04,-9999.0,SSW,3.5,-,N/A,,Clear,200,2012-10-01 14:45:00
5:15 PM,75.2,60.8,61,30.04,-9999.0,South,2.3,-,N/A,,Clear,190,2012-10-01 15:15:00
5:45 PM,73.4,59.0,61,30.04,-9999.0,SSW,2.3,-,N/A,,Clear,210,2012-10-01 15:45:00
6:15 PM,71.6,60.8,69,30.04,-9999.0,Calm,Calm,-,N/A,,Clear,0,2012-10-01 16:15:00
6:45 PM,69.8,60.8,73,30.04,-9999.0,NW,2.3,-,N/A,,Clear,320,2012-10-01 16:45:00
7:15 PM,69.8,59.0,68,30.04,-9999.0,WNW,3.5,-,N/A,,Clear,290,2012-10-01 17:15:00
7:45 PM,69.8,60.8,73,30.04,-9999.0,West,2.3,-,N/A,,Clear,260,2012-10-01 17:45:00
8:00 PM,70,60,63,30.03,9,West,2.2,,,,Partly Cloudy,260,2012-10-01 18:00:00
8:15 PM,68.0,60.8,78,30.04,-9999.0,NW,2.3,-,N/A,,Clear,310,2012-10-01 18:15:00
8:45 PM,68.0,60.8,78,30.04,-9999.0,NNW,4.6,-,N/A,,Clear,330,2012-10-01 18:45:00
9:15 PM,66.2,60.8,83,30.04,-9999.0,ESE,3.5,-,N/A,,Clear,110,2012-10-01 19:15:00
9:45 PM,66.2,60.8,83,30.06,-9999.0,Calm,Calm,-,N/A,,Clear,0,2012-10-01 19:45:00
10:45 PM,64.4,60.8,88,30.06,-9999.0,North,2.3,-,N/A,,Clear,10,2012-10-01 20:45:00
11:45 PM,62.6,59.0,88,30.06,-9999.0,NE,5.8,-,N/A,,Clear,50,2012-10-01 21:45:00